Location: Castanie
(44.7096°N, 2.0920°E)
Time: 11:49:44
(UTC+00:00)

Daily predictions for brighter satellites

Satellite Brightness Start Highest point End
(mag) Time Altitude Azimuth Time Altitude Azimuth Time Altitude Azimuth
SL-16 R/B 3.2 19:10:53 10° SSE 19:15:22 25° ESE 19:19:53 10° NE
Cosmos 1378 Rocket 4.3 19:12:11 10° N 19:16:12 34° ENE 19:20:08 10° SE
Okean O Rocket 3.6 19:17:00 10° E 19:19:06 13° ENE 19:21:13 10° NNE
CZ-4 R/B 1.6 19:20:16 10° SE 19:23:49 44° ENE 19:27:21 10° N
SPOT 5 2.6 19:22:57 10° SSE 19:27:28 80° ENE 19:31:51 10° N
NOSS 3-4 (A) 3.9 19:23:14 10° SW 19:28:25 58° NW 19:34:09 10° NNE
NOSS 3-4 (C) 3.9 19:23:44 10° SW 19:28:57 58° NW 19:34:43 10° NNE
Cosmos 1656 Rocket 4.0 19:26:49 10° NNW 19:32:08 49° ENE 19:37:23 10° SE
Cosmos 1025 Rocket 4.0 19:29:09 10° NNE 19:32:55 29° ENE 19:36:27 11° SE
Helios 1A Rocket 2.6 19:30:59 10° NNE 19:34:05 43° E 19:37:08 10° S
Cosmos 1733 Rocket 3.0 19:30:58 10° S 19:35:19 75° E 19:39:44 10° NNE
CZ-4B R/B 3.7 19:31:39 10° SSE 19:35:22 75° ENE 19:39:16 10° N
PAYLOAD B 4.5 19:30:13 10° SE 19:35:30 51° ENE 19:40:49 10° N
Terra 2.4 19:32:25 10° SE 19:36:45 39° ENE 19:41:07 10° N
Cosmos 2242 Rocket 3.5 19:32:42 10° N 19:37:10 75° E 19:41:33 10° SSE
SJ-6B 4.3 19:34:01 10° SSW 19:37:21 34° W 19:40:41 10° NNW
BREEZE-M DEB (TANK) 2.9 19:35:57 10° WNW 19:38:25 44° NNE 19:43:23 10° E
IRAS Rocket 4.2 19:34:26 10° SSE 19:39:55 85° ENE 19:45:26 10° NNW
Gblst 52 Del rocket 4.4 19:35:24 10° WSW 19:41:15 88° SSE 19:47:56 10° ENE
Resurs 01 Rocket 4.0 19:37:52 10° SSW 19:41:23 23° W 19:44:54 10° NW
Cosmos 1821 Rocket 4.0 19:35:38 10° S 19:41:52 74° E 19:48:15 10° NNE
Cosmos 2237 Rocket 2.9 19:37:24 10° SW 19:43:00 59° WNW 19:48:39 10° NNE
Cosmos 2218 Rocket 4.2 19:41:49 10° SSW 19:47:56 74° W 19:54:07 10° N
Cosmos 2150 Rocket 4.5 19:43:46 10° SSE 19:48:26 36° ESE 19:53:11 10° NE
CSL-04 Rocket 4.0 19:43:04 10° S 19:48:37 74° WSW 19:54:11 10° NNW
Meteor 2-15 Rocket 4.4 19:45:13 10° S 19:51:17 80° E 19:57:25 10° N
BREEZE-M DEB (TANK) 3.6 19:49:57 10° WNW 19:52:08 34° N 19:55:52 10° ENE
Cosmos 1346 Rocket 2.9 19:49:14 10° N 19:52:44 45° ENE 19:55:10 17° SE
SL-4 R/B 3.0 19:53:41 10° S 19:56:39 22° SE 19:57:35 20° ESE
Cosmos 1400 Rocket 2.9 19:53:18 10° SSW 19:56:53 67° WNW 20:00:30 10° N
BREEZE-M DEB (TANK) 3.9 19:53:23 10° SSW 19:57:07 40° ESE 20:08:01 10° NE
Cosmos 1812 1.4 19:56:45 14° SSW 19:58:02 51° W 19:59:41 10° N
Cosmos 1602 3.8 19:57:52 10° NNE 19:59:36 22° ENE 19:59:36 22° ENE
Meteor 1-31 Rocket 3.2 19:56:34 10° S 20:00:01 54° W 20:03:29 10° NNW
Cosmos 1943 Rocket 4.3 19:57:27 10° NW 20:01:55 25° WSW 20:06:22 10° SSW
ASTEX 1 4.0 19:59:47 17° SE 20:03:03 39° ENE 20:07:37 10° N
Gbstr 26 Del rocket 4.2 19:59:04 10° SSW 20:03:38 28° SE 20:06:31 16° E
USA 59 Rocket 0.4 20:00:30 10° NW 20:03:59 53° SW 20:07:46 14° SSE
Feng Yun 1-1 Rocket 4.2 20:00:31 10° SSE 20:06:01 83° WSW 20:11:28 10° NNW
Cosmos 1869 4.0 20:06:01 25° ESE 20:06:48 27° E 20:09:53 10° NNE
Cosmos 2297 4.4 20:01:52 10° NNW 20:07:18 41° ENE 20:10:44 21° ESE
Cosmos 1315 Rocket 4.4 20:08:54 16° E 20:08:54 16° E 20:10:52 10° NE
ADEOS 3.5 20:06:32 14° SSE 20:11:03 77° ENE 20:16:17 10° NNW
Cosmos 2369 Rocket 2.6 20:06:18 10° NNW 20:11:43 48° ENE 20:14:59 23° ESE
USA 186 2.7 20:14:08 21° NE 20:14:08 21° NE 20:15:33 10° NNE
CBERS 1 LM4 rocket 4.3 20:10:01 12° SSE 20:14:18 83° WSW 20:19:08 10° NNW
SL-08 R/B 3.3 20:10:32 10° NNE 20:15:25 64° ESE 20:20:15 10° S
MOS 1 4.4 20:10:34 10° S 20:16:13 79° WSW 20:21:54 10° NNW
Lacrosse 5 rocket 3.6 20:16:09 10° N 20:16:45 10° N 20:17:21 10° NNE
Cosmos 2285 Rocket 4.0 20:13:03 10° S 20:19:19 66° ESE 20:25:36 10° NNE
Cosmos 2221 Rocket 3.6 20:15:51 10° N 20:20:15 64° E 20:22:40 26° SSE
YAOGAN 11 4.3 20:16:32 10° NNE 20:20:41 47° E 20:23:06 23° SSE
USA 234 3.2 20:14:13 10° NE 20:20:47 72° SE 20:27:19 10° SW
SKYMED 3 4.3 20:19:28 10° NNE 20:23:22 85° WNW 20:27:16 10° SSW
Cosmos 405 Rocket 3.6 20:22:24 10° NNE 20:24:26 23° ENE 20:24:26 23° ENE
Cosmos 1943 3.8 20:23:23 22° SSE 20:26:14 35° ESE 20:31:19 10° NE
Molniya-1 3.0 20:24:54 10° SW 20:27:26 88° NW 20:32:28 10° NE
CZ-4B R/B 3.8 20:27:35 23° ENE 20:27:38 23° ENE 20:30:24 10° NNE
CZ-4B R/B 3.4 20:23:42 13° S 20:28:40 73° WSW 20:34:21 10° NNW
SL-8 R/B 3.8 20:27:01 10° WSW 20:31:45 72° NNW 20:36:05 12° ENE
SL-08 R/B 4.4 20:27:38 10° N 20:33:53 75° E 20:38:00 23° SSE
OAO 2 Rocket 4.4 20:29:41 10° WSW 20:33:58 27° S 20:34:49 25° SSE
Cosmos 1975 Rocket 4.0 20:31:27 10° N 20:35:23 30° ENE 20:35:59 29° E
ERS-1 Rocket 3.8 20:33:53 11° S 20:38:31 48° W 20:43:22 10° NNW
Cosmos 2263 4.3 20:37:18 10° NNW 20:42:55 64° ENE 20:45:15 35° SE
CZ-2C R/B 4.3 20:44:39 16° NE 20:44:39 16° NE 20:45:43 10° NNE
Cosmos 2292 Rocket 4.1 20:41:24 10° NNW 20:45:21 45° W 20:47:06 24° SSW
Okean-O 2.5 20:44:32 37° SSE 20:46:15 89° WSW 20:50:39 10° NNW
Cosmos 2298 Rocket 4.2 20:43:00 10° SSW 20:48:17 73° WNW 20:53:38 10° NNE
Cosmos 1908 Rocket 4.0 20:45:40 12° SSW 20:49:39 59° W 20:53:56 10° N
Cosmos 44 4.4 20:44:56 10° SW 20:49:51 50° NW 20:55:02 10° NNE
Okean O Rocket 1.7 20:53:06 37° S 20:54:44 69° WSW 20:59:03 10° NNW
CZ-4B R/B 3.6 20:55:25 44° ESE 20:56:22 52° ENE 21:00:59 10° N
CZ-4 R/B 4.0 20:56:09 10° WSW 20:58:03 14° W 20:59:58 10° WNW
Ariane Rocket 3.3 20:57:13 41° ESE 20:58:15 48° ENE 21:03:05 10° N
SL-16 R/B 3.0 20:53:35 10° SW 20:59:05 52° WNW 21:04:39 10° NNE
Cosmos 1782 Rocket 3.4 20:58:38 48° S 20:59:49 87° E 21:04:09 10° N
Cosmos 1934 Rocket 4.1 20:54:46 11° SSW 21:00:45 77° W 21:06:57 10° N
Geosat 4.2 20:56:46 10° NNE 21:01:45 70° WNW 21:06:42 10° SW
Spot 2 Rocket 3.9 21:03:20 29° SSW 21:05:42 57° W 21:10:39 10° NNW
USA 245 3.8 21:05:18 52° SSE 21:06:31 83° ENE 21:12:01 10° NNW
Cosmos 1269 Rocket 4.0 21:04:00 10° NNW 21:09:16 69° ENE 21:10:20 54° SE
ATLAS 5 CENTAUR R/B 3.3 21:06:55 10° N 21:10:05 21° NE 21:11:03 20° ENE
Cosmos 1140 Rocket 3.3 21:06:40 10° NNW 21:11:50 78° ENE 21:12:46 59° SE
Terra 3.8 21:10:46 11° SW 21:14:23 24° W 21:18:11 10° NW
NOSS 3-1 (C) 4.1 21:12:11 10° NW 21:19:24 77° SW 21:23:02 39° SSE
Cosmos 1862 3.9 21:20:17 10° N 21:22:56 46° N 21:22:56 46° N
Cosmos 1447 Rocket 4.4 21:20:08 10° N 21:26:23 71° E 21:27:42 55° SE
Cosmos 2058 3.2 21:24:22 10° N 21:27:31 55° N 21:27:31 55° N
Cosmos 407 Rocket 3.7 21:23:45 10° NNW 21:28:46 53° ENE 21:28:58 52° ENE
Cosmos 371 Rocket 3.8 21:28:46 10° N 21:33:15 45° ENE 21:33:15 45° ENE
SL-4 R/B 3.8 21:29:53 10° WSW 21:31:14 21° WSW 21:31:14 21° WSW
COSMOS 2455 2.8 21:34:26 10° NNW 21:40:28 69° NE 21:41:17 61° ESE
SJ 16-02 2.6 21:37:28 10° N 21:40:32 32° NE 21:40:32 32° NE
Cosmos 2251 Rocket 4.4 21:38:26 10° N 21:43:21 36° ENE 21:43:27 36° ENE
Cosmos 1315 Rocket 4.1 21:43:33 33° W 21:43:42 34° WNW 21:47:09 10° N
SPOT 3 Rocket 4.2 21:48:49 43° SW 21:49:40 47° W 21:54:40 10° NNW
Gbstr 26 Del rocket 3.8 21:44:51 10° WSW 21:48:40 49° W 21:48:40 49° W
Cosmos 1605 Rocket 4.4 21:47:33 31° SW 21:50:21 56° WNW 21:56:24 10° N
Lacrosse 5 rocket 3.4 21:51:30 10° NNW 21:52:47 19° NNW 21:52:47 19° NNW
Cosmos 2369 Rocket 3.6 21:50:50 10° NW 21:55:25 27° WSW 21:56:46 24° SW
SeaSat 1 3.9 21:56:42 26° NE 21:56:58 26° NE 22:00:59 10° N
Cosmos 2173 Rocket 3.9 22:03:21 66° E 22:03:21 66° E 22:09:15 10° NNE
USA 234 4.2 21:57:24 10° NE 22:03:35 46° NNW 22:09:46 10° W
Cosmos 1697 Rocket 4.4 22:00:08 10° N 22:04:21 21° NE 22:05:25 20° ENE
Helios 1B rocket 4.5 22:09:10 19° N 22:09:10 19° N 22:10:23 10° N
Cosmos 921 Rocket 4.2 22:03:21 10° NNW 22:06:41 37° WNW 22:06:41 37° WNW
Cosmos 1603 3.6 22:07:59 81° W 22:08:07 81° WNW 22:13:50 10° NNE
Cosmos 1943 4.4 22:04:58 10° SW 22:10:10 39° NW 22:15:29 10° NNE
SL-8 R/B 4.4 22:09:46 10° WNW 22:13:50 50° NNW 22:13:50 50° NNW
Meteor 2-3 Rocket 3.8 22:08:57 10° N 22:14:03 65° NE 22:14:03 65° NE
NOSS 3-1 (A) 4.1 22:11:55 10° NW 22:19:14 71° WSW 22:20:42 60° S
Okean 2 Rocket 4.4 22:24:29 36° N 22:24:29 36° N 22:27:10 10° N
Cosmos 1980 Rocket 4.4 22:21:20 10° N 22:24:42 16° NE 22:26:39 13° ENE
Cosmos 2100 Rocket 3.9 22:26:44 80° W 22:26:51 80° W 22:33:05 10° N
Cosmos 1190 Rocket 4.4 22:23:05 10° NNW 22:27:29 60° N 22:27:29 60° N
Tsikada Rocket 4.5 22:26:31 10° N 22:32:10 47° ENE 22:32:10 47° ENE
Cosmos 2360 4.5 22:37:12 10° NNW 22:42:06 66° NNW 22:42:06 66° NNW
Cosmos 1656 4.1 22:39:57 10° NNW 22:44:20 59° NW 22:44:20 59° NW
ATLAS 3B R/B 4.0 22:45:05 10° NNW 22:52:17 38° NE 22:55:41 26° E
ATLAS 5 CENTAUR R/B 3.3 22:48:06 10° NW 22:50:11 29° NW 22:50:11 29° NW
Cosmos 1833 Rocket 3.7 23:01:16 38° NE 23:01:16 38° NE 23:04:46 10° NNE
ALOS 2 4.3 23:03:31 30° N 23:03:31 30° N 23:05:52 10° N
Cosmos 1818 4.5 23:00:07 10° NW 23:03:52 43° NW 23:03:52 43° NW
ARIANE 5 R/B 4.4 23:10:04 30° N 23:10:04 30° N 23:12:19 10° NNW
Cosmos 1725 Rocket 4.2 23:08:52 62° WNW 23:08:52 62° WNW 23:14:55 10° N
DEBRIS 4.5 23:14:40 49° WNW 23:16:00 66° N 23:30:54 10° ENE
Cosmos 2233 Rocket 4.1 23:18:32 69° NNW 23:18:32 69° NNW 23:24:10 10° N
USA 229 DEB 4.3 23:11:29 10° NNW 23:18:53 60° NE 23:20:33 51° E
USA 229 4.3 23:11:32 10° NNW 23:18:57 60° NE 23:20:40 50° E
SJ 16-02 3.9 23:16:00 10° NW 23:17:02 15° WNW 23:17:02 15° WNW
Cosmos 2056 Rocket 4.4 23:20:45 46° NNW 23:20:45 46° NNW 23:25:07 10° NNE
ATLAS 2AS CENTAUR R/B 2.7 23:25:29 77° NNE 23:25:29 77° NNE 23:31:48 10° NE
CZ-2C R/B 3.7 23:29:07 39° NE 23:29:07 39° NE 23:33:23 10° N
SeaSat 1 4.0 23:36:18 29° NW 23:36:18 29° NW 23:38:51 10° NW
ACS3 Solar Sail 3.6 23:41:01 10° NE 23:44:46 20° E 23:44:46 20° E
Cosmos 1697 Rocket 3.6 23:43:17 10° NNW 23:47:06 44° NW 23:47:06 44° NW
Cosmos 1464 Rocket 4.5 23:54:07 52° NE 23:54:07 52° NE 23:59:06 10° NNE
